Regional Weather Roundup
Issued by NWS

Home | Current Version | Previous Version | Graphics & Text | Print | Product List | Glossary On
Versions: 1 2 3 4 5 6 7 8 9 10 11 12 13 14 15 16 17 18 19 20 21 22 23 24 25 26 27 28 29 30 31 32 33 34 35 36 37 38 39 40 41 42 43 44 45 46 47 48 49 50
185
ASUS43 KMKX 220000
RWRWI

WISCONSIN REGIONAL WEATHER ROUNDUP
NATIONAL WEATHER SERVICE MILWAUKEE/SULLIVAN WI
600 PM CST SAT JAN 21 2017

NOTE: "FAIR" INDICATES FEW OR NO CLOUDS BELOW 12,000 FEET WITH NO
SIGNIFICANT WEATHER AND/OR OBSTRUCTIONS TO VISIBILITY.

WIZ001-002-006>008-014>016-023>028-220100-
NORTHWEST WISCONSIN

CITY           SKY/WX    TMP DP  RH WIND       PRES   REMARKS
SUPERIOR ARPT  CLOUDY    35  35 100 E10       29.49S WCI  27
ASHLAND        FOG       33  33 100 N6        29.49R VSB 1/4 WCI  28
6HR MIN TEMP:  33; 6HR MAX TEMP:  36; 6HR PCP:  0.08;

HAYWARD        CLOUDY    36  34  92 CALM      29.46R FOG
6HR MIN TEMP:  35; 6HR MAX TEMP:  39; 6HR PCP:  0.04;

SIREN          CLOUDY    36  36  99 CALM      29.48R FOG
CUMBERLAND     FOG       34  32  93 CALM      29.46R VSB 1/4
RICE LAKE      FOG       35  35  99 CALM      29.47R VSB 1/4
CHETEK         FOG       35  35 100 CALM      29.46R VSB 1/2
LADYSMITH      CLOUDY    37  37  97 CALM      29.47R FOG
EAU CLAIRE     NOT AVBL
MENOMONIE        N/A    N/A N/A N/A MISG        N/A
NEW RICHMOND   FOG       34  34 100 CALM      29.46S VSB 1/2
OSCEOLA        FOG       36  36 100 CALM      29.49R VSB 1/4
$$

WIZ003>005-009-010-017-018-220100-
NORTH CENTRAL WISCONSIN

CITY           SKY/WX    TMP DP  RH WIND       PRES   REMARKS
MANITOWISH WTR DRIZZLE   36  36 100 CALM      29.45S
ARBOR VITAE    DRIZZLE   37  36  96 E3        29.46R
WOODRUFF       DRIZZLE   37  36  96 E3        29.46R
RHINELANDER    LGT RAIN  36  36 100 E7        29.46R VSB 1   WCI  30
6HR MIN TEMP:  36; 6HR MAX TEMP:  37; 6HR PCP:  0.03;

EAGLE RIVER    LGT RAIN  35  35 100 W6        29.47R WCI  30
LAND O LAKES   CLOUDY    36  36 100 S3        29.48R FOG
6HR MIN TEMP:  35; 6HR MAX TEMP:  37;

PHILLIPS       FOG       35  35 100 CALM      29.45R VSB 1
6HR MIN TEMP:  35; 6HR MAX TEMP:  36; 6HR PCP:  0.19;

TOMAHAWK       DRIZZLE   35  34  96 CALM      29.46R
MEDFORD        FOG       34  34  99 SE3       29.45R VSB 1/4
MERRILL        CLOUDY    36  36 100 CALM        N/A  FOG
6HR MIN TEMP:  35; 6HR MAX TEMP:  37; 6HR PCP:  0.01;

$$

WIZ029-030-035-036-043>047-220100-
CENTRAL WISCONSIN

CITY           SKY/WX    TMP DP  RH WIND       PRES   REMARKS
WAUSAU         CLOUDY    35  35 100 SE3       29.47R FOG
6HR MIN TEMP:  35; 6HR MAX TEMP:  36;

MOSINEE        FOG       34  34 100 E3        29.48R VSB 1/2
MARSHFIELD     FOG       36  35  96 SE3       29.46R VSB 1/4
6HR MIN TEMP:  35; 6HR MAX TEMP:  36; 6HR PCP: TRACE;

STEVENS POINT  FOG       34  34 100 CALM      29.49R VSB 3/4
WAUPACA        CLOUDY    38  37  97 CALM      29.50R FOG
6HR MIN TEMP:  37; 6HR MAX TEMP:  39;

WAUTOMA        FOG       35  34  96 SW3       29.51R VSB 1/4
6HR MIN TEMP:  35; 6HR MAX TEMP:  39; 6HR PCP:  0.01;

WISC RAPIDS    FOG       37  37 100 S3        29.50R VSB 1/4
6HR MIN TEMP:  35; 6HR MAX TEMP:  38;

CAMP DOUGLAS   CLOUDY    36  36 100 SE5       29.48S FOG     WCI  32
$$

WIZ011>013-019>022-031-037>040-048>050-220100-
NORTHEAST WISCONSIN

CITY           SKY/WX    TMP DP  RH WIND       PRES   REMARKS
ANTIGO         CLOUDY    34  34 100 CALM      29.47R FOG
SHAWANO        FOG       36  35  96 CALM      29.49R VSB 3/4
6HR MIN TEMP:  36; 6HR MAX TEMP:  37; 6HR PCP:  0.01;

OCONTO         CLOUDY    35  35  99 CALM      29.48R VSB 1/4
6HR MIN TEMP:  35; 6HR MAX TEMP:  37;

STURGEON BAY   FOG       39  39 100 SE5       29.49R VSB 1/4
6HR MIN TEMP:  39; 6HR MAX TEMP:  41; 6HR PCP:  0.03;

GREEN BAY      FOG       37  37 100 W3        29.48R VSB 1/2
6HR MIN TEMP:  36; 6HR MAX TEMP:  38;

MANITOWOC      NOT AVBL
APPLETON       FOG       37  37 100 CALM      29.47R VSB 1/4
CLINTONVILLE   CLOUDY    34  34 100 CALM      29.49R FOG
OSHKOSH        FOG       40  39  97 SW6       29.49R VSB 3/4
6HR MIN TEMP:  37; 6HR MAX TEMP:  40;

$$

WIZ032>034-041-042-053>061-220100-
SOUTHWEST WISCONSIN

CITY           SKY/WX    TMP DP  RH WIND       PRES   REMARKS
LA CROSSE      FOG       41  38  89 CALM      29.48R VSB 1/4
6HR MIN TEMP:  40; 6HR MAX TEMP:  43; 6HR PCP: TRACE;

SPARTA         CLOUDY    38  38 100 CALM      29.49R FOG
6HR MIN TEMP:  37; 6HR MAX TEMP:  41;

VIROQUA        CLOUDY    38  38 100 S7        29.47S VSB 1/4 WCI  33
6HR MIN TEMP:  38; 6HR MAX TEMP:  40;

BOSCOBEL       CLOUDY    43  41  93 S5        29.51R
6HR MIN TEMP:  42; 6HR MAX TEMP:  45;

PRAIRIE DU CHI CLOUDY    41  40  97 CALM      29.51R FOG
6HR MIN TEMP:  40; 6HR MAX TEMP:  43;

PLATTEVILLE    CLOUDY    41  41 100 SW6       29.52R
$$

WIZ056-057-062-063-064-067-068-220100-
SOUTH CENTRAL WISCONSIN

CITY           SKY/WX    TMP DP  RH WIND       PRES   REMARKS
REEDSBURG      CLOUDY    40  40 100 CALM      29.50R
6HR MIN TEMP:  38; 6HR MAX TEMP:  42;

BARABOO/DELLS  CLOUDY    40  40  98 SW3       29.50R FOG
LONE ROCK      FOG       38  37  97 CALM      29.50S VSB 3/4
MINERAL POINT  CLOUDY    43  43 100 SW8       29.50R FOG
MADISON        CLOUDY    42  41  96 CALM      29.52R
6HR MIN TEMP:  42; 6HR MAX TEMP:  45; 6HR PCP: TRACE;

MIDDLETON      CLOUDY    43  43 100 SW3       29.52R
6HR MIN TEMP:  43; 6HR MAX TEMP:  46;

WATERTOWN      CLOUDY    43  43 100 SW6       29.51R
MONROE         CLOUDY    41  41 100 S5        29.52R FOG
JANESVILLE     CLOUDY    45  45 100 W9        29.53R FOG
$$

WIZ051-052-058>065-066-070>072-220100-
SOUTHEAST WISCONSIN

CITY           SKY/WX    TMP DP  RH WIND       PRES   REMARKS
MILWAUKEE      PTCLDY    48  41  76 SW5       29.51R
6HR MIN TEMP:  45; 6HR MAX TEMP:  56;

WAUKESHA       PTCLDY    45  41  87 SW6       29.52R
MILWAUKEE/TIMM PTCLDY    46  39  76 SW5       29.51R
RACINE         CLEAR     49  42  77 SW5       29.53R
6HR MIN TEMP:  42; 6HR MAX TEMP:  55;

KENOSHA        CLEAR     46  40  79 SW7       29.51R
6HR MIN TEMP:  46; 6HR MAX TEMP:  58;

FOND DU LAC    CLOUDY    43  40  89 SW7       29.50R FOG
6HR MIN TEMP:  42; 6HR MAX TEMP:  45;

SHEBOYGAN      FOG       37  36  96 W3        29.50R VSB 1/4
6HR MIN TEMP:  36; 6HR MAX TEMP:  43;

WEST BEND      FOG       41  41 100 CALM      29.50R VSB 1/4
JUNEAU         CLOUDY    41  40  96 SW8       29.51R FOG
$$

LSZ147-162-220100-
LAKE SUPERIOR

STATION/POSITION TIME  TEMP    WIND        PRES    WAVE
                       AIR SEA DIR/SP/G            HT/PER
                 (UTC) (F)     (DEG/KT/KT) (MB)    (FT/S)
DEVILS ISLAND    2300   35      60/ 10/ 11  999.2R
PORT WING        2330   34      40/  9/  9  999.0S
SAXON HARBOR     2330   34      CALM  /  2  998.6R
$$

LMZ867-665-643>646-220100-
LAKE MICHIGAN

STATION/POSITION TIME  TEMP    WIND        PRES    WAVE
                       AIR SEA DIR/SP/G            HT/PER
                 (UTC) (F)     (DEG/KT/KT) (MB)    (FT/S)
NORTHPORT PIER   2340   37        CALM      999.0S
SISTER BAY       2320   38        CALM       N/A
KEWAUNEE LAKESHO 2324   37      CALM  /  1  998.0
SHEBOYGAN LAKESH 2300   40     240/  1/  2  998.4R
PORT WASHINGTON  2330   37      CALM  /  2 1000.0R
KENOSHA   LAKESH 2300   53     210/  6/  8  999.0
$$

TC  - TEMPERATURE IN CELSIUS
VSB - VISIBILITY IN STATUTE MILES
WCI - WIND CHILL INDEX
HX  - HEAT INDEX





USA.gov is the U.S. government's official web portal to all federal, state and local government web resources and services.